Time,TemperatureF,DewpointF,PressureIn,WindDirection,WindDirectionDegrees,WindSpeedMPH,WindSpeedGustMPH,Humidity,HourlyPrecipIn,Conditions,Clouds,dailyrainin,SoftwareType,DateUTC
2013-12-15 00:00:00,34.7,32.1,30.38,WSW,245,0.0,0.0,90,0.00,,---,0.00,VWS V14.01,2013-12-15 08:00:00,
2013-12-15 00:01:00,34.7,31.8,30.38,WSW,245,0.0,0.0,89,0.00,,---,0.00,VWS V14.01,2013-12-15 08:01:00,
2013-12-15 00:06:00,34.5,31.6,30.38,WSW,245,0.0,0.0,89,0.00,,---,0.00,VWS V14.01,2013-12-15 08:06:00,
2013-12-15 00:10:00,34.4,31.5,30.38,WSW,245,0.0,0.0,89,0.00,,---,0.00,VWS V14.01,2013-12-15 08:10:00,
2013-12-15 00:11:00,34.4,31.5,30.38,WSW,245,0.0,0.0,89,0.00,,---,0.00,VWS V14.01,2013-12-15 08:11:00,
2013-12-15 00:16:00,34.4,31.8,30.38,WSW,245,0.0,0.0,90,0.00,,---,0.00,VWS V14.01,2013-12-15 08:16:00,
2013-12-15 00:20:00,34.4,31.8,30.38,WSW,245,0.0,0.0,90,0.00,,---,0.00,VWS V14.01,2013-12-15 08:20:00,
2013-12-15 00:21:00,34.4,31.8,30.38,WSW,245,0.0,0.0,90,0.00,,---,0.00,VWS V14.01,2013-12-15 08:21:00,
2013-12-15 00:26:00,34.3,31.7,30.38,WSW,245,0.0,0.0,90,0.00,,---,0.00,VWS V14.01,2013-12-15 08:26:00,
2013-12-15 00:30:00,34.3,31.7,30.38,WSW,245,0.0,0.0,90,0.00,,---,0.00,VWS V14.01,2013-12-15 08:30:00,
2013-12-15 00:31:00,34.3,31.7,30.38,WSW,245,0.0,0.0,90,0.00,,---,0.00,VWS V14.01,2013-12-15 08:31:00,
2013-12-15 00:36:00,34.1,31.5,30.38,WSW,245,0.0,0.0,90,0.00,,---,0.00,VWS V14.01,2013-12-15 08:36:00,
2013-12-15 00:40:00,34.0,31.4,30.38,WSW,245,0.0,0.0,90,0.00,,---,0.00,VWS V14.01,2013-12-15 08:40:00,
2013-12-15 00:41:00,34.0,31.4,30.38,WSW,245,0.0,0.0,90,0.00,,---,0.00,VWS V14.01,2013-12-15 08:41:00,
2013-12-15 00:46:00,34.0,31.4,30.38,WSW,245,0.0,0.0,90,0.00,,---,0.00,VWS V14.01,2013-12-15 08:46:00,
2013-12-15 00:50:00,33.9,31.3,30.38,WSW,245,0.0,0.0,90,0.00,,---,0.00,VWS V14.01,2013-12-15 08:50:00,
2013-12-15 00:51:00,33.8,31.2,30.38,WSW,245,0.0,0.0,90,0.00,,---,0.00,VWS V14.01,2013-12-15 08:51:00,
2013-12-15 00:56:00,33.6,31.0,30.38,WSW,245,0.0,0.0,90,0.00,,---,0.00,VWS V14.01,2013-12-15 08:56:00,
2013-12-15 01:00:00,33.5,30.9,30.38,WSW,245,0.0,0.0,90,0.00,,---,0.00,VWS V14.01,2013-12-15 09:00:00,
2013-12-15 01:01:00,33.5,30.9,30.38,WSW,245,0.0,0.0,90,0.00,,---,0.00,VWS V14.01,2013-12-15 09:01:00,
2013-12-15 01:06:00,33.4,30.8,30.38,WSW,245,0.0,0.0,90,0.00,,---,0.00,VWS V14.01,2013-12-15 09:06:00,
2013-12-15 01:10:00,33.3,30.7,30.38,WSW,245,0.0,0.0,90,0.00,,---,0.00,VWS V14.01,2013-12-15 09:10:00,
2013-12-15 01:11:00,33.3,30.7,30.38,WSW,245,0.0,0.0,90,0.00,,---,0.00,VWS V14.01,2013-12-15 09:11:00,
2013-12-15 01:16:00,33.2,30.6,30.37,WSW,245,0.0,0.0,90,0.00,,---,0.00,VWS V14.01,2013-12-15 09:16:00,
2013-12-15 01:20:00,33.2,30.6,30.37,WSW,245,0.0,0.0,90,0.00,,---,0.00,VWS V14.01,2013-12-15 09:20:00,
2013-12-15 01:21:00,33.1,30.5,30.37,WSW,245,0.0,0.0,90,0.00,,---,0.00,VWS V14.01,2013-12-15 09:21:00,
2013-12-15 01:26:00,33.0,30.4,30.37,WSW,245,0.0,0.0,90,0.00,,---,0.00,VWS V14.01,2013-12-15 09:26:00,
2013-12-15 01:30:00,32.9,30.3,30.37,WSW,245,0.0,0.0,90,0.00,,---,0.00,VWS V14.01,2013-12-15 09:30:00,
2013-12-15 01:31:00,32.9,30.3,30.37,WSW,245,0.0,0.0,90,0.00,,---,0.00,VWS V14.01,2013-12-15 09:31:00,
2013-12-15 01:36:00,32.8,30.2,30.37,WSW,245,0.0,0.0,90,0.00,,---,0.00,VWS V14.01,2013-12-15 09:36:00,
2013-12-15 01:40:00,32.7,30.1,30.37,WSW,245,0.0,0.0,90,0.00,,---,0.00,VWS V14.01,2013-12-15 09:40:00,
2013-12-15 01:41:00,32.7,30.1,30.37,WSW,245,0.0,0.0,90,0.00,,---,0.00,VWS V14.01,2013-12-15 09:41:00,
2013-12-15 01:46:00,32.6,30.3,30.37,WSW,245,0.0,0.0,91,0.00,,---,0.00,VWS V14.01,2013-12-15 09:46:00,
2013-12-15 01:50:00,32.6,30.3,30.37,WSW,245,0.0,0.0,91,0.00,,---,0.00,VWS V14.01,2013-12-15 09:50:00,
2013-12-15 01:51:00,32.6,30.3,30.37,WSW,245,0.0,0.0,91,0.00,,---,0.00,VWS V14.01,2013-12-15 09:51:00,
2013-12-15 01:56:00,32.5,30.2,30.37,WSW,245,0.0,0.0,91,0.00,,---,0.00,VWS V14.01,2013-12-15 09:56:00,
2013-12-15 02:00:00,32.5,30.2,30.37,WSW,245,0.0,0.0,91,0.00,,---,0.00,VWS V14.01,2013-12-15 10:00:00,
2013-12-15 02:01:00,32.6,30.3,30.37,WSW,245,0.0,0.0,91,0.00,,---,0.00,VWS V14.01,2013-12-15 10:01:00,
2013-12-15 02:06:00,32.7,30.6,30.37,WSW,245,0.0,0.0,92,0.00,,---,0.00,VWS V14.01,2013-12-15 10:06:00,
2013-12-15 02:10:00,32.7,30.4,30.37,WSW,245,0.0,0.0,91,0.00,,---,0.00,VWS V14.01,2013-12-15 10:10:00,
2013-12-15 02:11:00,32.6,30.3,30.37,WSW,245,0.0,0.0,91,0.00,,---,0.00,VWS V14.01,2013-12-15 10:11:00,
2013-12-15 02:16:00,32.5,30.2,30.37,WSW,245,0.0,0.0,91,0.00,,---,0.00,VWS V14.01,2013-12-15 10:16:00,
2013-12-15 02:20:00,32.4,30.1,30.37,WSW,245,0.0,0.0,91,0.00,,---,0.00,VWS V14.01,2013-12-15 10:20:00,
2013-12-15 02:21:00,32.4,30.1,30.38,WSW,245,0.0,0.0,91,0.00,,---,0.00,VWS V14.01,2013-12-15 10:21:00,
2013-12-15 02:26:00,32.4,30.1,30.37,WSW,245,0.0,0.0,91,0.00,,---,0.00,VWS V14.01,2013-12-15 10:26:00,
2013-12-15 02:30:00,32.4,30.3,30.38,WSW,245,0.0,0.0,92,0.00,,---,0.00,VWS V14.01,2013-12-15 10:30:00,
2013-12-15 02:31:00,32.4,30.3,30.38,WSW,245,0.0,0.0,92,0.00,,---,0.00,VWS V14.01,2013-12-15 10:31:00,
2013-12-15 02:36:00,32.4,30.3,30.38,WSW,245,0.0,0.0,92,0.00,,---,0.00,VWS V14.01,2013-12-15 10:36:00,
2013-12-15 02:40:00,32.3,30.2,30.37,WSW,245,0.0,0.0,92,0.00,,---,0.00,VWS V14.01,2013-12-15 10:40:00,
2013-12-15 02:41:00,32.4,30.3,30.37,WSW,245,0.0,0.0,92,0.00,,---,0.00,VWS V14.01,2013-12-15 10:41:00,
2013-12-15 02:46:00,32.4,30.3,30.37,WSW,245,0.0,1.0,92,0.00,,---,0.00,VWS V14.01,2013-12-15 10:46:00,
2013-12-15 02:50:00,32.5,30.4,30.37,WSW,245,0.0,1.0,92,0.00,,---,0.00,VWS V14.01,2013-12-15 10:50:00,
2013-12-15 02:51:00,32.5,30.4,30.37,WSW,245,0.0,1.0,92,0.00,,---,0.00,VWS V14.01,2013-12-15 10:51:00,
2013-12-15 02:56:00,32.6,30.5,30.37,WSW,245,0.0,1.0,92,0.00,,---,0.00,VWS V14.01,2013-12-15 10:56:00,
2013-12-15 03:00:00,32.6,30.5,30.37,WSW,245,0.0,1.0,92,0.00,,---,0.00,VWS V14.01,2013-12-15 11:00:00,
2013-12-15 03:01:00,32.6,30.5,30.37,WSW,245,0.0,0.0,92,0.00,,---,0.00,VWS V14.01,2013-12-15 11:01:00,
2013-12-15 03:06:00,32.6,30.5,30.37,WSW,245,0.0,0.0,92,0.00,,---,0.00,VWS V14.01,2013-12-15 11:06:00,
2013-12-15 03:10:00,32.6,30.5,30.37,WSW,245,0.0,0.0,92,0.00,,---,0.00,VWS V14.01,2013-12-15 11:10:00,
2013-12-15 03:11:00,32.6,30.5,30.37,WSW,245,0.0,0.0,92,0.00,,---,0.00,VWS V14.01,2013-12-15 11:11:00,
2013-12-15 03:16:00,32.5,30.4,30.37,WSW,245,0.0,0.0,92,0.00,,---,0.00,VWS V14.01,2013-12-15 11:16:00,
2013-12-15 03:20:00,32.3,30.2,30.37,WSW,245,0.0,0.0,92,0.00,,---,0.00,VWS V14.01,2013-12-15 11:20:00,
2013-12-15 03:21:00,32.3,30.2,30.37,WSW,245,0.0,0.0,92,0.00,,---,0.00,VWS V14.01,2013-12-15 11:21:00,
2013-12-15 03:26:00,32.2,30.1,30.37,WSW,245,0.0,0.0,92,0.00,,---,0.00,VWS V14.01,2013-12-15 11:26:00,
2013-12-15 03:30:00,32.2,30.1,30.36,WSW,245,0.0,1.0,92,0.00,,---,0.00,VWS V14.01,2013-12-15 11:30:00,
2013-12-15 03:31:00,32.2,30.1,30.36,WSW,245,0.0,0.0,92,0.00,,---,0.00,VWS V14.01,2013-12-15 11:31:00,
2013-12-15 03:36:00,32.2,30.1,30.37,SW,219,0.0,1.0,92,0.00,,---,0.00,VWS V14.01,2013-12-15 11:36:00,
2013-12-15 03:40:00,32.2,30.1,30.37,SW,218,0.0,1.0,92,0.00,,---,0.00,VWS V14.01,2013-12-15 11:40:00,
2013-12-15 03:41:00,32.2,30.1,30.37,SW,218,0.0,0.0,92,0.00,,---,0.00,VWS V14.01,2013-12-15 11:41:00,
2013-12-15 03:46:00,32.1,30.0,30.37,SW,218,0.0,0.0,92,0.00,,---,0.00,VWS V14.01,2013-12-15 11:46:00,
2013-12-15 03:50:00,32.0,29.9,30.36,SW,218,0.0,0.0,92,0.00,,---,0.00,VWS V14.01,2013-12-15 11:50:00,
2013-12-15 03:51:00,32.0,29.9,30.36,SW,218,0.0,0.0,92,0.00,,---,0.00,VWS V14.01,2013-12-15 11:51:00,
2013-12-15 03:56:00,31.9,29.8,30.36,SW,218,0.0,0.0,92,0.00,,---,0.00,VWS V14.01,2013-12-15 11:56:00,
2013-12-15 04:00:00,31.8,29.8,30.36,SW,218,0.0,0.0,92,0.00,,---,0.00,VWS V14.01,2013-12-15 12:00:00,
2013-12-15 04:01:00,31.8,29.8,30.36,SW,218,0.0,0.0,92,0.00,,---,0.00,VWS V14.01,2013-12-15 12:01:00,
2013-12-15 04:06:00,31.6,29.5,30.36,SW,218,0.0,0.0,92,0.00,,---,0.00,VWS V14.01,2013-12-15 12:06:00,
2013-12-15 04:10:00,31.6,29.5,30.36,SW,219,0.0,0.0,92,0.00,,---,0.00,VWS V14.01,2013-12-15 12:10:00,
2013-12-15 04:11:00,31.6,29.5,30.36,SW,218,0.0,0.0,92,0.00,,---,0.00,VWS V14.01,2013-12-15 12:11:00,
2013-12-15 04:16:00,31.5,29.5,30.36,SW,218,0.0,0.0,92,0.00,,---,0.00,VWS V14.01,2013-12-15 12:16:00,
2013-12-15 04:20:00,31.5,29.5,30.35,SW,218,0.0,0.0,92,0.00,,---,0.00,VWS V14.01,2013-12-15 12:20:00,
2013-12-15 04:21:00,31.5,29.5,30.35,SW,218,0.0,0.0,92,0.00,,---,0.00,VWS V14.01,2013-12-15 12:21:00,
2013-12-15 04:26:00,31.4,29.4,30.35,SW,218,0.0,0.0,92,0.00,,---,0.00,VWS V14.01,2013-12-15 12:26:00,
2013-12-15 04:30:00,31.3,29.2,30.35,SW,219,0.0,0.0,92,0.00,,---,0.00,VWS V14.01,2013-12-15 12:30:00,
2013-12-15 04:31:00,31.3,29.2,30.35,SW,218,0.0,0.0,92,0.00,,---,0.00,VWS V14.01,2013-12-15 12:31:00,
2013-12-15 04:35:00,31.3,29.2,30.35,SW,218,0.0,0.0,92,0.00,,---,0.00,VWS V14.01,2013-12-15 12:35:00,
2013-12-15 04:40:00,31.2,29.1,30.35,SW,218,0.0,0.0,92,0.00,,---,0.00,VWS V14.01,2013-12-15 12:40:00,
2013-12-15 04:45:00,31.1,29.0,30.35,SW,218,0.0,0.0,92,0.00,,---,0.00,VWS V14.01,2013-12-15 12:45:00,
2013-12-15 04:50:00,30.9,28.9,30.35,SW,218,0.0,0.0,92,0.00,,---,0.00,VWS V14.01,2013-12-15 12:50:00,
2013-12-15 04:55:00,30.9,28.9,30.35,SW,218,0.0,0.0,92,0.00,,---,0.00,VWS V14.01,2013-12-15 12:55:00,
2013-12-15 05:00:00,30.9,28.9,30.35,SW,218,0.0,0.0,92,0.00,,---,0.00,VWS V14.01,2013-12-15 13:00:00,
2013-12-15 05:05:00,30.7,28.7,30.35,SW,218,0.0,0.0,92,0.00,,---,0.00,VWS V14.01,2013-12-15 13:05:00,
2013-12-15 05:10:00,30.6,28.6,30.35,SW,218,0.0,0.0,92,0.00,,---,0.00,VWS V14.01,2013-12-15 13:10:00,
2013-12-15 05:15:00,30.6,28.6,30.35,SW,218,0.0,0.0,92,0.00,,---,0.00,VWS V14.01,2013-12-15 13:15:00,
2013-12-15 05:20:00,30.5,28.5,30.35,SW,218,0.0,0.0,92,0.00,,---,0.00,VWS V14.01,2013-12-15 13:20:00,
2013-12-15 05:25:00,30.3,28.3,30.35,SW,218,0.0,0.0,92,0.00,,---,0.00,VWS V14.01,2013-12-15 13:25:00,
2013-12-15 05:30:00,30.3,28.3,30.35,SW,219,0.0,0.0,92,0.00,,---,0.00,VWS V14.01,2013-12-15 13:30:00,
2013-12-15 05:35:00,30.3,28.5,30.35,SW,218,0.0,0.0,93,0.00,,---,0.00,VWS V14.01,2013-12-15 13:35:00,
2013-12-15 05:40:00,30.2,28.4,30.35,SW,218,0.0,0.0,93,0.00,,---,0.00,VWS V14.01,2013-12-15 13:40:00,
2013-12-15 05:45:00,30.1,28.1,30.35,SW,218,0.0,0.0,92,0.00,,---,0.00,VWS V14.01,2013-12-15 13:45:00,
2013-12-15 05:50:00,29.9,27.9,30.35,SW,218,0.0,0.0,92,0.00,,---,0.00,VWS V14.01,2013-12-15 13:50:00,
2013-12-15 05:55:00,30.0,28.2,30.35,SW,218,0.0,0.0,93,0.00,,---,0.00,VWS V14.01,2013-12-15 13:55:00,
2013-12-15 06:00:00,30.1,28.3,30.35,SW,219,0.0,0.0,93,0.00,,---,0.00,VWS V14.01,2013-12-15 14:00:00,
2013-12-15 06:05:00,30.1,28.3,30.35,SW,218,0.0,0.0,93,0.00,,---,0.00,VWS V14.01,2013-12-15 14:05:00,
2013-12-15 06:10:00,30.1,28.3,30.35,SW,218,0.0,0.0,93,0.00,,---,0.00,VWS V14.01,2013-12-15 14:10:00,
2013-12-15 06:15:00,30.0,28.2,30.35,SW,218,0.0,0.0,93,0.00,,---,0.00,VWS V14.01,2013-12-15 14:15:00,
2013-12-15 06:20:00,29.9,28.1,30.35,SW,218,0.0,0.0,93,0.00,,---,0.00,VWS V14.01,2013-12-15 14:20:00,
2013-12-15 06:25:00,29.8,28.0,30.35,SW,218,0.0,0.0,93,0.00,,---,0.00,VWS V14.01,2013-12-15 14:25:00,
2013-12-15 06:30:00,29.7,27.9,30.35,SW,218,0.0,0.0,93,0.00,,---,0.00,VWS V14.01,2013-12-15 14:30:00,
2013-12-15 06:35:00,29.6,27.8,30.35,SW,218,0.0,0.0,93,0.00,,---,0.00,VWS V14.01,2013-12-15 14:35:00,
2013-12-15 06:40:00,29.6,27.8,30.35,SW,219,0.0,0.0,93,0.00,,---,0.00,VWS V14.01,2013-12-15 14:40:00,
2013-12-15 06:45:00,29.6,27.8,30.35,SW,218,0.0,0.0,93,0.00,,---,0.00,VWS V14.01,2013-12-15 14:45:00,
2013-12-15 06:50:00,29.5,27.7,30.35,SW,218,0.0,0.0,93,0.00,,---,0.00,VWS V14.01,2013-12-15 14:50:00,
2013-12-15 06:55:00,29.6,27.8,30.35,SW,218,0.0,0.0,93,0.00,,---,0.00,VWS V14.01,2013-12-15 14:55:00,
2013-12-15 07:00:00,29.5,27.7,30.35,SW,218,0.0,0.0,93,0.00,,---,0.00,VWS V14.01,2013-12-15 15:00:00,
2013-12-15 07:05:00,29.4,27.6,30.35,SW,218,0.0,0.0,93,0.00,,---,0.00,VWS V14.01,2013-12-15 15:05:00,
2013-12-15 07:10:00,29.5,27.7,30.35,SW,218,0.0,0.0,93,0.00,,---,0.00,VWS V14.01,2013-12-15 15:10:00,
2013-12-15 07:15:00,29.5,27.7,30.35,SW,218,0.0,0.0,93,0.00,,---,0.00,VWS V14.01,2013-12-15 15:15:00,
2013-12-15 07:20:00,29.4,27.6,30.35,SW,218,0.0,0.0,93,0.00,,---,0.00,VWS V14.01,2013-12-15 15:20:00,
2013-12-15 07:25:00,29.3,27.5,30.35,SW,218,0.0,0.0,93,0.00,,---,0.00,VWS V14.01,2013-12-15 15:25:00,
2013-12-15 07:30:00,29.3,27.5,30.35,SW,218,0.0,0.0,93,0.00,,---,0.00,VWS V14.01,2013-12-15 15:30:00,
2013-12-15 07:35:00,29.2,27.4,30.35,SW,218,0.0,0.0,93,0.00,,---,0.00,VWS V14.01,2013-12-15 15:35:00,
2013-12-15 07:40:00,29.2,27.4,30.35,SW,218,0.0,0.0,93,0.00,,---,0.00,VWS V14.01,2013-12-15 15:40:00,
2013-12-15 07:45:00,29.1,27.3,30.35,SW,218,0.0,0.0,93,0.00,,---,0.00,VWS V14.01,2013-12-15 15:45:00,
2013-12-15 07:50:00,29.2,27.4,30.35,SW,218,0.0,0.0,93,0.00,,---,0.00,VWS V14.01,2013-12-15 15:50:00,
2013-12-15 07:55:00,29.4,27.9,30.35,SW,218,0.0,0.0,94,0.00,,---,0.00,VWS V14.01,2013-12-15 15:55:00,
2013-12-15 08:00:00,29.8,28.3,30.36,SW,218,0.0,0.0,94,0.00,,---,0.00,VWS V14.01,2013-12-15 16:00:00,
2013-12-15 08:05:00,30.1,28.6,30.36,SW,218,0.0,0.0,94,0.00,,---,0.00,VWS V14.01,2013-12-15 16:05:00,
2013-12-15 08:10:00,30.5,29.2,30.36,SW,218,0.0,0.0,95,0.00,,---,0.00,VWS V14.01,2013-12-15 16:10:00,
2013-12-15 08:15:00,30.9,29.6,30.36,SW,218,0.0,0.0,95,0.00,,---,0.00,VWS V14.01,2013-12-15 16:15:00,
2013-12-15 08:20:00,31.1,29.8,30.36,SW,218,0.0,0.0,95,0.00,,---,0.00,VWS V14.01,2013-12-15 16:20:00,
2013-12-15 08:25:00,31.7,30.4,30.37,SW,218,0.0,0.0,95,0.00,,---,0.00,VWS V14.01,2013-12-15 16:25:00,
2013-12-15 08:30:00,32.1,30.8,30.37,SW,218,0.0,0.0,95,0.00,,---,0.00,VWS V14.01,2013-12-15 16:30:00,
2013-12-15 08:35:00,32.6,31.3,30.37,SW,218,0.0,0.0,95,0.00,,---,0.00,VWS V14.01,2013-12-15 16:35:00,
2013-12-15 08:40:00,33.2,31.9,30.37,SW,218,0.0,0.0,95,0.00,,---,0.00,VWS V14.01,2013-12-15 16:40:00,
2013-12-15 08:45:00,33.9,32.9,30.37,SW,218,0.0,0.0,96,0.00,,---,0.00,VWS V14.01,2013-12-15 16:45:00,
2013-12-15 08:50:00,34.6,33.6,30.37,SW,218,0.0,0.0,96,0.00,,---,0.00,VWS V14.01,2013-12-15 16:50:00,
2013-12-15 08:55:00,35.2,33.9,30.37,SW,217,0.0,1.0,95,0.00,,---,0.00,VWS V14.01,2013-12-15 16:55:00,
2013-12-15 09:00:00,35.8,34.2,30.37,SSW,208,0.0,0.0,94,0.00,,---,0.00,VWS V14.01,2013-12-15 17:00:00,
2013-12-15 09:05:00,36.5,34.7,30.37,SW,236,1.0,1.0,93,0.00,,---,0.00,VWS V14.01,2013-12-15 17:05:00,
2013-12-15 09:10:00,37.2,34.8,30.38,SW,236,0.0,1.0,91,0.00,,---,0.00,VWS V14.01,2013-12-15 17:10:00,
2013-12-15 09:15:00,37.8,34.9,30.38,SSW,208,0.0,1.0,89,0.00,,---,0.00,VWS V14.01,2013-12-15 17:15:00,
2013-12-15 09:20:00,38.4,34.9,30.38,SSW,207,1.0,1.0,87,0.00,,---,0.00,VWS V14.01,2013-12-15 17:20:00,
2013-12-15 09:25:00,39.0,35.2,30.38,SSW,203,1.0,2.0,86,0.00,,---,0.00,VWS V14.01,2013-12-15 17:25:00,
2013-12-15 09:30:00,39.6,35.5,30.38,SW,225,0.0,1.0,85,0.00,,---,0.00,VWS V14.01,2013-12-15 17:30:00,
2013-12-15 09:35:00,40.1,35.4,30.38,SW,236,1.0,1.0,83,0.00,,---,0.00,VWS V14.01,2013-12-15 17:35:00,
2013-12-15 09:40:00,40.8,35.7,30.38,SSW,203,1.0,1.0,82,0.00,,---,0.00,VWS V14.01,2013-12-15 17:40:00,
2013-12-15 09:45:00,41.4,36.0,30.38,SSW,203,1.0,2.0,81,0.00,,---,0.00,VWS V14.01,2013-12-15 17:45:00,
2013-12-15 09:50:00,42.2,36.5,30.38,WSW,237,0.0,1.0,80,0.00,,---,0.00,VWS V14.01,2013-12-15 17:50:00,
2013-12-15 09:55:00,42.9,36.5,30.38,SW,236,0.0,2.0,78,0.00,,---,0.00,VWS V14.01,2013-12-15 17:55:00,
2013-12-15 10:00:00,43.5,36.5,30.38,WSW,245,0.0,0.0,76,0.00,,---,0.00,VWS V14.01,2013-12-15 18:00:00,
2013-12-15 11:30:00,57.4,36.8,30.31,SW,236,0.0,1.0,46,0.00,,---,0.00,VWS V14.01,2013-12-15 19:30:00,
2013-12-15 11:40:00,57.5,35.8,30.31,NW,312,0.0,2.0,44,0.00,,---,0.00,VWS V14.01,2013-12-15 19:40:00,
2013-12-15 11:50:00,58.4,36.0,30.31,SW,225,0.0,2.0,43,0.00,,---,0.00,VWS V14.01,2013-12-15 19:50:00,
2013-12-15 12:00:00,58.7,35.7,30.30,WSW,257,2.0,2.0,42,0.00,,---,0.00,VWS V14.01,2013-12-15 20:00:00,
2013-12-15 12:10:00,58.6,35.0,30.30,NE,49,1.0,3.0,41,0.00,,---,0.00,VWS V14.01,2013-12-15 20:10:00,
2013-12-15 12:20:00,58.7,36.9,30.29,SSW,192,0.0,1.0,44,0.00,,---,0.00,VWS V14.01,2013-12-15 20:20:00,
2013-12-15 12:27:00,56.8,36.3,30.32,WSW,240,1.0,1.0,46,0.00,,---,0.00,VWS V14.01,2013-12-15 20:27:00,
2013-12-15 12:30:00,57.4,36.8,30.31,SW,236,0.0,1.0,46,0.00,,---,0.00,VWS V14.01,2013-12-15 20:30:00,
2013-12-15 12:32:00,57.6,36.4,30.31,SSW,198,0.0,1.0,45,0.00,,---,0.00,VWS V14.01,2013-12-15 20:32:00,
2013-12-15 12:37:00,57.6,35.9,30.31,NW,312,1.0,2.0,44,0.00,,---,0.00,VWS V14.01,2013-12-15 20:37:00,
2013-12-15 12:40:00,57.5,35.8,30.31,NW,312,0.0,2.0,44,0.00,,---,0.00,VWS V14.01,2013-12-15 20:40:00,
2013-12-15 12:42:00,57.6,35.9,30.31,SSW,205,1.0,2.0,44,0.00,,---,0.00,VWS V14.01,2013-12-15 20:42:00,
2013-12-15 12:47:00,58.1,36.3,30.31,SSW,204,1.0,2.0,44,0.00,,---,0.00,VWS V14.01,2013-12-15 20:47:00,
2013-12-15 12:50:00,58.4,36.0,30.31,SW,225,0.0,2.0,43,0.00,,---,0.00,VWS V14.01,2013-12-15 20:50:00,
2013-12-15 12:52:00,58.6,36.2,30.30,North,352,1.0,2.0,43,0.00,,---,0.00,VWS V14.01,2013-12-15 20:52:00,
2013-12-15 12:57:00,58.5,36.1,30.30,NNE,15,0.0,2.0,43,0.00,,---,0.00,VWS V14.01,2013-12-15 20:57:00,
2013-12-15 13:00:00,58.7,35.7,30.30,WSW,257,2.0,2.0,42,0.00,,---,0.00,VWS V14.01,2013-12-15 21:00:00,
2013-12-15 13:02:00,59.0,36.0,30.30,SSW,210,0.0,2.0,42,0.00,,---,0.00,VWS V14.01,2013-12-15 21:02:00,
2013-12-15 13:07:00,58.9,35.9,30.29,SE,146,1.0,2.0,42,0.00,,---,0.00,VWS V14.01,2013-12-15 21:07:00,
2013-12-15 13:10:00,58.6,35.0,30.30,NE,49,1.0,3.0,41,0.00,,---,0.00,VWS V14.01,2013-12-15 21:10:00,
2013-12-15 13:12:00,58.4,36.0,30.29,NE,49,0.0,1.0,43,0.00,,---,0.00,VWS V14.01,2013-12-15 21:12:00,
2013-12-15 13:17:00,58.5,36.1,30.29,SSW,201,0.0,1.0,43,0.00,,---,0.00,VWS V14.01,2013-12-15 21:17:00,
2013-12-15 13:20:00,58.7,36.9,30.29,SSW,192,0.0,1.0,44,0.00,,---,0.00,VWS V14.01,2013-12-15 21:20:00,
2013-12-15 13:22:00,59.0,37.1,30.29,WNW,298,0.0,1.0,44,0.00,,---,0.00,VWS V14.01,2013-12-15 21:22:00,
2013-12-15 13:27:00,59.4,36.9,30.28,NNW,348,1.0,2.0,43,0.00,,---,0.00,VWS V14.01,2013-12-15 21:27:00,
2013-12-15 13:30:00,59.2,36.7,30.28,NE,49,1.0,2.0,43,0.00,,---,0.00,VWS V14.01,2013-12-15 21:30:00,
2013-12-15 13:32:00,59.1,36.7,30.28,SW,226,1.0,3.0,43,0.00,,---,0.00,VWS V14.01,2013-12-15 21:32:00,
2013-12-15 13:37:00,59.5,36.4,30.28,NE,36,1.0,3.0,42,0.00,,---,0.00,VWS V14.01,2013-12-15 21:37:00,
2013-12-15 13:40:00,59.5,37.0,30.28,WSW,246,2.0,3.0,43,0.00,,---,0.00,VWS V14.01,2013-12-15 21:40:00,
2013-12-15 13:42:00,59.7,36.6,30.28,SW,232,0.0,2.0,42,0.00,,---,0.00,VWS V14.01,2013-12-15 21:42:00,
2013-12-15 13:47:00,59.7,36.6,30.28,NNW,332,1.0,4.0,42,0.00,,---,0.00,VWS V14.01,2013-12-15 21:47:00,
2013-12-15 13:50:00,59.6,35.9,30.28,NE,46,2.0,4.0,41,0.00,,---,0.00,VWS V14.01,2013-12-15 21:50:00,
2013-12-15 13:52:00,59.5,36.4,30.28,East,94,1.0,2.0,42,0.00,,---,0.00,VWS V14.01,2013-12-15 21:52:00,
2013-12-15 13:57:00,59.4,36.3,30.28,East,94,0.0,2.0,42,0.00,,---,0.00,VWS V14.01,2013-12-15 21:57:00,
2013-12-15 14:00:00,59.5,37.0,30.28,NE,41,0.0,3.0,43,0.00,,---,0.00,VWS V14.01,2013-12-15 22:00:00,
2013-12-15 14:02:00,59.9,36.8,30.28,WSW,246,1.0,2.0,42,0.00,,---,0.00,VWS V14.01,2013-12-15 22:02:00,
2013-12-15 14:07:00,60.6,36.2,30.28,SSW,204,1.0,2.0,40,0.00,,---,0.00,VWS V14.01,2013-12-15 22:07:00,
2013-12-15 14:10:00,60.8,36.3,30.27,SW,214,0.0,2.0,40,0.00,,---,0.00,VWS V14.01,2013-12-15 22:10:00,
2013-12-15 14:12:00,61.2,36.7,30.27,SW,232,0.0,1.0,40,0.00,,---,0.00,VWS V14.01,2013-12-15 22:12:00,
2013-12-15 14:17:00,61.7,36.5,30.27,South,188,1.0,1.0,39,0.00,,---,0.00,VWS V14.01,2013-12-15 22:17:00,
2013-12-15 14:20:00,61.9,36.0,30.27,NNE,19,2.0,3.0,38,0.00,,---,0.00,VWS V14.01,2013-12-15 22:20:00,
2013-12-15 14:22:00,61.5,35.7,30.27,ENE,74,1.0,3.0,38,0.00,,---,0.00,VWS V14.01,2013-12-15 22:22:00,
2013-12-15 14:27:00,61.2,36.7,30.28,SSW,210,0.0,3.0,40,0.00,,---,0.00,VWS V14.01,2013-12-15 22:27:00,
2013-12-15 14:30:00,61.6,37.1,30.28,WSW,252,1.0,3.0,40,0.00,,---,0.00,VWS V14.01,2013-12-15 22:30:00,
2013-12-15 14:32:00,61.9,36.7,30.27,WSW,256,1.0,1.0,39,0.00,,---,0.00,VWS V14.01,2013-12-15 22:32:00,
2013-12-15 14:37:00,61.9,36.7,30.27,WSW,243,2.0,2.0,39,0.00,,---,0.00,VWS V14.01,2013-12-15 22:37:00,
2013-12-15 14:40:00,61.8,37.2,30.27,WSW,243,0.0,2.0,40,0.00,,---,0.00,VWS V14.01,2013-12-15 22:40:00,
2013-12-15 14:41:00,61.7,37.2,30.27,WSW,243,1.0,1.0,40,0.00,,---,0.00,VWS V14.01,2013-12-15 22:41:00,
2013-12-15 14:46:00,61.3,37.4,30.27,WSW,243,0.0,1.0,41,0.00,,---,0.00,VWS V14.01,2013-12-15 22:46:00,
2013-12-15 14:50:00,61.2,37.3,30.27,WSW,248,0.0,1.0,41,0.00,,---,0.00,VWS V14.01,2013-12-15 22:50:00,
2013-12-15 14:51:00,61.2,38.0,30.27,WSW,240,0.0,1.0,42,0.00,,---,0.00,VWS V14.01,2013-12-15 22:51:00,
2013-12-15 14:56:00,61.1,37.2,30.27,West,269,1.0,1.0,41,0.00,,---,0.00,VWS V14.01,2013-12-15 22:56:00,
2013-12-15 15:00:00,61.0,37.2,30.27,WSW,240,1.0,2.0,41,0.00,,---,0.00,VWS V14.01,2013-12-15 23:00:00,
2013-12-15 15:01:00,60.9,37.1,30.27,WSW,242,1.0,3.0,41,0.00,,---,0.00,VWS V14.01,2013-12-15 23:01:00,
2013-12-15 15:06:00,60.9,37.7,30.27,SW,232,2.0,3.0,42,0.00,,---,0.00,VWS V14.01,2013-12-15 23:06:00,
2013-12-15 15:10:00,60.9,37.7,30.27,West,267,0.0,3.0,42,0.00,,---,0.00,VWS V14.01,2013-12-15 23:10:00,
2013-12-15 15:11:00,60.9,37.1,30.27,WSW,253,0.0,1.0,41,0.00,,---,0.00,VWS V14.01,2013-12-15 23:11:00,
2013-12-15 15:16:00,60.6,36.8,30.27,NNE,20,1.0,3.0,41,0.00,,---,0.00,VWS V14.01,2013-12-15 23:16:00,
2013-12-15 15:20:00,60.4,37.2,30.27,NNE,20,0.0,3.0,42,0.00,,---,0.00,VWS V14.01,2013-12-15 23:20:00,
2013-12-15 15:21:00,60.3,37.1,30.27,North,9,0.0,1.0,42,0.00,,---,0.00,VWS V14.01,2013-12-15 23:21:00,
2013-12-15 15:26:00,60.4,37.2,30.27,WSW,243,0.0,1.0,42,0.00,,---,0.00,VWS V14.01,2013-12-15 23:26:00,
2013-12-15 15:30:00,60.5,37.3,30.27,WSW,243,0.0,1.0,42,0.00,,---,0.00,VWS V14.01,2013-12-15 23:30:00,
2013-12-15 15:31:00,60.4,37.2,30.27,WSW,243,0.0,0.0,42,0.00,,---,0.00,VWS V14.01,2013-12-15 23:31:00,
2013-12-15 15:36:00,60.2,37.0,30.26,WSW,243,0.0,0.0,42,0.00,,---,0.00,VWS V14.01,2013-12-15 23:36:00,
2013-12-15 15:40:00,60.2,37.0,30.26,WSW,243,0.0,1.0,42,0.00,,---,0.00,VWS V14.01,2013-12-15 23:40:00,
2013-12-15 15:41:00,60.2,37.0,30.27,WSW,243,0.0,1.0,42,0.00,,---,0.00,VWS V14.01,2013-12-15 23:41:00,
2013-12-15 15:46:00,60.1,37.0,30.26,WSW,243,0.0,1.0,42,0.00,,---,0.00,VWS V14.01,2013-12-15 23:46:00,
2013-12-15 15:50:00,60.1,37.0,30.26,WSW,243,0.0,1.0,42,0.00,,---,0.00,VWS V14.01,2013-12-15 23:50:00,
2013-12-15 15:51:00,60.2,37.6,30.26,WSW,239,0.0,1.0,43,0.00,,---,0.00,VWS V14.01,2013-12-15 23:51:00,
2013-12-15 15:56:00,60.5,37.3,30.26,WSW,239,0.0,1.0,42,0.00,,---,0.00,VWS V14.01,2013-12-15 23:56:00,
2013-12-15 16:00:00,60.4,37.2,30.26,WSW,240,0.0,1.0,42,0.00,,---,0.00,VWS V14.01,2013-12-16 00:00:00,
2013-12-15 16:01:00,60.3,37.1,30.26,WSW,239,0.0,0.0,42,0.00,,---,0.00,VWS V14.01,2013-12-16 00:01:00,
2013-12-15 16:06:00,60.3,37.1,30.26,WSW,239,0.0,0.0,42,0.00,,---,0.00,VWS V14.01,2013-12-16 00:06:00,
2013-12-15 16:10:00,60.2,37.0,30.26,WSW,239,0.0,0.0,42,0.00,,---,0.00,VWS V14.01,2013-12-16 00:10:00,
2013-12-15 16:11:00,60.1,37.0,30.26,WSW,239,0.0,0.0,42,0.00,,---,0.00,VWS V14.01,2013-12-16 00:11:00,
2013-12-15 16:16:00,59.6,36.5,30.26,WSW,239,0.0,0.0,42,0.00,,---,0.00,VWS V14.01,2013-12-16 00:16:00,
2013-12-15 16:20:00,59.4,36.9,30.26,WSW,239,0.0,0.0,43,0.00,,---,0.00,VWS V14.01,2013-12-16 00:20:00,
2013-12-15 16:21:00,59.3,36.8,30.26,WSW,239,0.0,0.0,43,0.00,,---,0.00,VWS V14.01,2013-12-16 00:21:00,
2013-12-15 16:26:00,58.9,37.0,30.26,WSW,239,0.0,0.0,44,0.00,,---,0.00,VWS V14.01,2013-12-16 00:26:00,
2013-12-15 16:30:00,58.7,37.4,30.26,WSW,239,0.0,0.0,45,0.00,,---,0.00,VWS V14.01,2013-12-16 00:30:00,
2013-12-15 16:31:00,58.5,37.8,30.26,WSW,238,0.0,0.0,46,0.00,,---,0.00,VWS V14.01,2013-12-16 00:31:00,
2013-12-15 16:36:00,57.8,37.7,30.26,WSW,239,0.0,0.0,47,0.00,,---,0.00,VWS V14.01,2013-12-16 00:36:00,
2013-12-15 16:40:00,57.4,37.9,30.26,WSW,239,0.0,0.0,48,0.00,,---,0.00,VWS V14.01,2013-12-16 00:40:00,
2013-12-15 16:41:00,57.1,37.6,30.26,WSW,239,0.0,0.0,48,0.00,,---,0.00,VWS V14.01,2013-12-16 00:41:00,
2013-12-15 16:46:00,56.3,36.9,30.26,WSW,239,0.0,0.0,48,0.00,,---,0.00,VWS V14.01,2013-12-16 00:46:00,
2013-12-15 16:50:00,55.9,37.0,30.26,WSW,239,0.0,0.0,49,0.00,,---,0.00,VWS V14.01,2013-12-16 00:50:00,
2013-12-15 16:51:00,55.6,37.3,30.26,WSW,239,0.0,0.0,50,0.00,,---,0.00,VWS V14.01,2013-12-16 00:51:00,
2013-12-15 16:56:00,54.8,38.0,30.26,WSW,239,0.0,0.0,53,0.00,,---,0.00,VWS V14.01,2013-12-16 00:56:00,
2013-12-15 17:00:00,54.3,37.1,30.26,WSW,239,0.0,0.0,52,0.00,,---,0.00,VWS V14.01,2013-12-16 01:00:00,
2013-12-15 17:01:00,54.0,36.8,30.26,WSW,238,0.0,0.0,52,0.00,,---,0.00,VWS V14.01,2013-12-16 01:01:00,
2013-12-15 17:06:00,53.3,36.6,30.26,WSW,239,0.0,0.0,53,0.00,,---,0.00,VWS V14.01,2013-12-16 01:06:00,
2013-12-15 17:10:00,52.8,36.6,30.26,WSW,239,0.0,0.0,54,0.00,,---,0.00,VWS V14.01,2013-12-16 01:10:00,
2013-12-15 17:11:00,52.4,36.3,30.26,WSW,239,0.0,0.0,54,0.00,,---,0.00,VWS V14.01,2013-12-16 01:11:00,
2013-12-15 17:16:00,51.7,36.1,30.26,WSW,239,0.0,0.0,55,0.00,,---,0.00,VWS V14.01,2013-12-16 01:16:00,
2013-12-15 17:20:00,51.3,36.2,30.26,WSW,239,0.0,0.0,56,0.00,,---,0.00,VWS V14.01,2013-12-16 01:20:00,
2013-12-15 17:21:00,51.0,36.3,30.26,WSW,239,0.0,0.0,57,0.00,,---,0.00,VWS V14.01,2013-12-16 01:21:00,
2013-12-15 17:26:00,50.4,36.2,30.26,WSW,238,0.0,0.0,58,0.00,,---,0.00,VWS V14.01,2013-12-16 01:26:00,
2013-12-15 17:30:00,50.1,36.8,30.26,WSW,239,0.0,0.0,60,0.00,,---,0.00,VWS V14.01,2013-12-16 01:30:00,
2013-12-15 17:31:00,49.9,37.0,30.26,WSW,238,0.0,0.0,61,0.00,,---,0.00,VWS V14.01,2013-12-16 01:31:00,
2013-12-15 17:36:00,49.4,36.9,30.26,WSW,238,0.0,0.0,62,0.00,,---,0.00,VWS V14.01,2013-12-16 01:36:00,
2013-12-15 17:40:00,49.1,36.7,30.26,WSW,239,0.0,0.0,62,0.00,,---,0.00,VWS V14.01,2013-12-16 01:40:00,
2013-12-15 17:41:00,48.9,36.5,30.26,WSW,239,0.0,0.0,62,0.00,,---,0.00,VWS V14.01,2013-12-16 01:41:00,
2013-12-15 17:46:00,48.5,36.5,30.26,WSW,239,0.0,0.0,63,0.00,,---,0.00,VWS V14.01,2013-12-16 01:46:00,
2013-12-15 17:50:00,48.2,36.6,30.26,WSW,239,0.0,0.0,64,0.00,,---,0.00,VWS V14.01,2013-12-16 01:50:00,
2013-12-15 17:51:00,48.1,36.5,30.25,WSW,238,0.0,0.0,64,0.00,,---,0.00,VWS V14.01,2013-12-16 01:51:00,
2013-12-15 17:56:00,47.7,36.1,30.25,WSW,239,0.0,0.0,64,0.00,,---,0.00,VWS V14.01,2013-12-16 01:56:00,
2013-12-15 18:00:00,47.4,36.2,30.26,WSW,239,0.0,0.0,65,0.00,,---,0.00,VWS V14.01,2013-12-16 02:00:00,
2013-12-15 18:01:00,47.3,36.2,30.25,WSW,239,0.0,0.0,65,0.00,,---,0.00,VWS V14.01,2013-12-16 02:01:00,
2013-12-15 18:06:00,46.9,36.5,30.26,WSW,239,0.0,0.0,67,0.00,,---,0.00,VWS V14.01,2013-12-16 02:06:00,
2013-12-15 18:10:00,46.8,36.8,30.26,WSW,239,0.0,0.0,68,0.00,,---,0.00,VWS V14.01,2013-12-16 02:10:00,
2013-12-15 18:11:00,46.7,36.7,30.26,WSW,239,0.0,0.0,68,0.00,,---,0.00,VWS V14.01,2013-12-16 02:11:00,
2013-12-15 18:16:00,46.3,36.7,30.26,WSW,239,0.0,0.0,69,0.00,,---,0.00,VWS V14.01,2013-12-16 02:16:00,
2013-12-15 18:20:00,46.1,36.5,30.26,WSW,238,0.0,0.0,69,0.00,,---,0.00,VWS V14.01,2013-12-16 02:20:00,
2013-12-15 18:21:00,46.0,36.8,30.26,WSW,239,0.0,0.0,70,0.00,,---,0.00,VWS V14.01,2013-12-16 02:21:00,
2013-12-15 18:26:00,45.9,37.0,30.26,WSW,239,0.0,0.0,71,0.00,,---,0.00,VWS V14.01,2013-12-16 02:26:00,
2013-12-15 18:30:00,45.7,36.8,30.26,WSW,239,0.0,0.0,71,0.00,,---,0.00,VWS V14.01,2013-12-16 02:30:00,
2013-12-15 18:31:00,45.6,36.8,30.26,WSW,239,0.0,0.0,71,0.00,,---,0.00,VWS V14.01,2013-12-16 02:31:00,
2013-12-15 18:36:00,45.3,36.5,30.26,WSW,238,0.0,0.0,71,0.00,,---,0.00,VWS V14.01,2013-12-16 02:36:00,
2013-12-15 18:40:00,45.1,36.3,30.26,WSW,239,0.0,0.0,71,0.00,,---,0.00,VWS V14.01,2013-12-16 02:40:00,
2013-12-15 18:41:00,45.0,36.5,30.26,WSW,239,0.0,0.0,72,0.00,,---,0.00,VWS V14.01,2013-12-16 02:41:00,
2013-12-15 18:46:00,44.7,36.6,30.26,WSW,239,0.0,0.0,73,0.00,,---,0.00,VWS V14.01,2013-12-16 02:46:00,
2013-12-15 18:50:00,44.5,36.4,30.26,WSW,238,0.0,0.0,73,0.00,,---,0.00,VWS V14.01,2013-12-16 02:50:00,
2013-12-15 18:51:00,44.4,36.3,30.26,WSW,239,0.0,0.0,73,0.00,,---,0.00,VWS V14.01,2013-12-16 02:51:00,
2013-12-15 18:56:00,44.1,36.4,30.26,WSW,238,0.0,0.0,74,0.00,,---,0.00,VWS V14.01,2013-12-16 02:56:00,
2013-12-15 19:00:00,43.9,36.2,30.26,WSW,239,0.0,0.0,74,0.00,,---,0.00,VWS V14.01,2013-12-16 03:00:00,
2013-12-15 19:01:00,43.8,36.1,30.26,WSW,239,0.0,0.0,74,0.00,,---,0.00,VWS V14.01,2013-12-16 03:01:00,
2013-12-15 19:06:00,43.6,36.2,30.26,WSW,239,0.0,0.0,75,0.00,,---,0.00,VWS V14.01,2013-12-16 03:06:00,
2013-12-15 19:10:00,43.5,36.1,30.26,WSW,238,0.0,0.0,75,0.00,,---,0.00,VWS V14.01,2013-12-16 03:10:00,
2013-12-15 19:11:00,43.4,36.0,30.26,WSW,239,0.0,0.0,75,0.00,,---,0.00,VWS V14.01,2013-12-16 03:11:00,
2013-12-15 19:16:00,43.1,35.7,30.26,WSW,239,0.0,0.0,75,0.00,,---,0.00,VWS V14.01,2013-12-16 03:16:00,
2013-12-15 19:20:00,42.9,35.5,30.25,WSW,239,0.0,0.0,75,0.00,,---,0.00,VWS V14.01,2013-12-16 03:20:00,
2013-12-15 19:21:00,42.8,35.8,30.26,WSW,239,0.0,0.0,76,0.00,,---,0.00,VWS V14.01,2013-12-16 03:21:00,
2013-12-15 19:26:00,42.6,35.6,30.26,WSW,239,0.0,0.0,76,0.00,,---,0.00,VWS V14.01,2013-12-16 03:26:00,
2013-12-15 19:30:00,42.4,35.4,30.26,WSW,239,0.0,0.0,76,0.00,,---,0.00,VWS V14.01,2013-12-16 03:30:00,
2013-12-15 19:31:00,42.3,35.3,30.26,WSW,237,0.0,0.0,76,0.00,,---,0.00,VWS V14.01,2013-12-16 03:31:00,
2013-12-15 19:36:00,42.1,35.4,30.25,WSW,239,0.0,0.0,77,0.00,,---,0.00,VWS V14.01,2013-12-16 03:36:00,
2013-12-15 19:39:00,41.9,35.2,30.25,WSW,239,0.0,0.0,77,0.00,,---,0.00,VWS V14.01,2013-12-16 03:39:00,
2013-12-15 19:40:00,41.9,35.2,30.25,WSW,239,0.0,0.0,77,0.00,,---,0.00,VWS V14.01,2013-12-16 03:40:00,
2013-12-15 19:44:00,41.7,35.4,30.25,WSW,239,0.0,0.0,78,0.00,,---,0.00,VWS V14.01,2013-12-16 03:44:00,
2013-12-15 19:49:00,41.5,35.5,30.25,WSW,239,0.0,0.0,79,0.00,,---,0.00,VWS V14.01,2013-12-16 03:49:00,
2013-12-15 19:50:00,41.5,35.5,30.25,WSW,239,0.0,0.0,79,0.00,,---,0.00,VWS V14.01,2013-12-16 03:50:00,
2013-12-15 19:54:00,41.4,35.7,30.25,WSW,239,0.0,0.0,80,0.00,,---,0.00,VWS V14.01,2013-12-16 03:54:00,
2013-12-15 19:59:00,41.3,35.6,30.25,WSW,240,0.0,0.0,80,0.00,,---,0.00,VWS V14.01,2013-12-16 03:59:00,
2013-12-15 20:00:00,41.3,35.6,30.25,WSW,239,0.0,0.0,80,0.00,,---,0.00,VWS V14.01,2013-12-16 04:00:00,
2013-12-15 20:04:00,41.1,35.4,30.25,WSW,239,0.0,0.0,80,0.00,,---,0.00,VWS V14.01,2013-12-16 04:04:00,
2013-12-15 20:09:00,40.9,35.2,30.25,WSW,238,0.0,0.0,80,0.00,,---,0.00,VWS V14.01,2013-12-16 04:09:00,
2013-12-15 20:10:00,40.9,35.2,30.25,WSW,239,0.0,0.0,80,0.00,,---,0.00,VWS V14.01,2013-12-16 04:10:00,
2013-12-15 20:14:00,40.8,35.4,30.26,WSW,239,0.0,0.0,81,0.00,,---,0.00,VWS V14.01,2013-12-16 04:14:00,
2013-12-15 20:19:00,40.7,35.6,30.26,WSW,239,0.0,0.0,82,0.00,,---,0.00,VWS V14.01,2013-12-16 04:19:00,
2013-12-15 20:20:00,40.6,35.5,30.26,WSW,239,0.0,0.0,82,0.00,,---,0.00,VWS V14.01,2013-12-16 04:20:00,
2013-12-15 20:24:00,40.5,35.5,30.26,WSW,239,0.0,0.0,82,0.00,,---,0.00,VWS V14.01,2013-12-16 04:24:00,
2013-12-15 20:29:00,40.3,35.2,30.26,WSW,238,0.0,0.0,82,0.00,,---,0.00,VWS V14.01,2013-12-16 04:29:00,
2013-12-15 20:30:00,40.3,35.2,30.26,WSW,239,0.0,0.0,82,0.00,,---,0.00,VWS V14.01,2013-12-16 04:30:00,
2013-12-15 20:34:00,40.1,35.1,30.26,WSW,239,0.0,0.0,82,0.00,,---,0.00,VWS V14.01,2013-12-16 04:34:00,
2013-12-15 20:39:00,39.9,35.2,30.26,WSW,239,0.0,0.0,83,0.00,,---,0.00,VWS V14.01,2013-12-16 04:39:00,
2013-12-15 20:40:00,39.9,35.2,30.26,WSW,239,0.0,0.0,83,0.00,,---,0.00,VWS V14.01,2013-12-16 04:40:00,
2013-12-15 20:44:00,39.8,35.1,30.26,WSW,239,0.0,0.0,83,0.00,,---,0.00,VWS V14.01,2013-12-16 04:44:00,
2013-12-15 20:49:00,39.7,35.0,30.26,WSW,239,0.0,0.0,83,0.00,,---,0.00,VWS V14.01,2013-12-16 04:49:00,
2013-12-15 20:50:00,39.6,34.9,30.26,WSW,239,0.0,0.0,83,0.00,,---,0.00,VWS V14.01,2013-12-16 04:50:00,
2013-12-15 20:54:00,39.5,34.8,30.27,WSW,239,0.0,0.0,83,0.00,,---,0.00,VWS V14.01,2013-12-16 04:54:00,
2013-12-15 20:59:00,39.4,35.0,30.26,WSW,239,0.0,0.0,84,0.00,,---,0.00,VWS V14.01,2013-12-16 04:59:00,
2013-12-15 21:00:00,39.4,35.0,30.26,WSW,239,0.0,0.0,84,0.00,,---,0.00,VWS V14.01,2013-12-16 05:00:00,
2013-12-15 21:01:00,39.3,34.9,30.26,WSW,239,0.0,0.0,84,0.00,,---,0.00,VWS V14.01,2013-12-16 05:01:00,
2013-12-15 21:06:00,39.2,34.8,30.26,WSW,239,0.0,0.0,84,0.00,,---,0.00,VWS V14.01,2013-12-16 05:06:00,
2013-12-15 21:10:00,39.2,34.8,30.26,WSW,239,0.0,0.0,84,0.00,,---,0.00,VWS V14.01,2013-12-16 05:10:00,
2013-12-15 21:11:00,39.1,34.7,30.27,WSW,239,0.0,0.0,84,0.00,,---,0.00,VWS V14.01,2013-12-16 05:11:00,
2013-12-15 21:16:00,39.0,34.6,30.27,WSW,239,0.0,0.0,84,0.00,,---,0.00,VWS V14.01,2013-12-16 05:16:00,
2013-12-15 21:20:00,38.9,34.5,30.27,WSW,239,0.0,0.0,84,0.00,,---,0.00,VWS V14.01,2013-12-16 05:20:00,
2013-12-15 21:21:00,38.7,34.3,30.27,WSW,239,0.0,0.0,84,0.00,,---,0.00,VWS V14.01,2013-12-16 05:21:00,
2013-12-15 21:26:00,38.6,34.5,30.26,WSW,239,0.0,0.0,85,0.00,,---,0.00,VWS V14.01,2013-12-16 05:26:00,
2013-12-15 21:30:00,38.5,34.4,30.27,WSW,239,0.0,0.0,85,0.00,,---,0.00,VWS V14.01,2013-12-16 05:30:00,
2013-12-15 21:31:00,38.5,34.4,30.26,WSW,239,0.0,0.0,85,0.00,,---,0.00,VWS V14.01,2013-12-16 05:31:00,
2013-12-15 21:36:00,38.3,34.2,30.27,WSW,239,0.0,0.0,85,0.00,,---,0.00,VWS V14.01,2013-12-16 05:36:00,
2013-12-15 21:40:00,38.2,34.4,30.27,WSW,239,0.0,0.0,86,0.00,,---,0.00,VWS V14.01,2013-12-16 05:40:00,
2013-12-15 21:41:00,38.2,34.4,30.27,WSW,239,0.0,0.0,86,0.00,,---,0.00,VWS V14.01,2013-12-16 05:41:00,
2013-12-15 21:46:00,38.1,34.3,30.27,WSW,239,0.0,0.0,86,0.00,,---,0.00,VWS V14.01,2013-12-16 05:46:00,
2013-12-15 21:50:00,38.0,34.2,30.27,WSW,239,0.0,0.0,86,0.00,,---,0.00,VWS V14.01,2013-12-16 05:50:00,
2013-12-15 21:51:00,38.0,34.2,30.27,WSW,239,0.0,0.0,86,0.00,,---,0.00,VWS V14.01,2013-12-16 05:51:00,
2013-12-15 21:56:00,37.9,34.1,30.27,WSW,239,0.0,0.0,86,0.00,,---,0.00,VWS V14.01,2013-12-16 05:56:00,
2013-12-15 22:00:00,37.9,34.4,30.27,WSW,239,0.0,0.0,87,0.00,,---,0.00,VWS V14.01,2013-12-16 06:00:00,
2013-12-15 22:01:00,37.8,34.3,30.27,WSW,239,0.0,0.0,87,0.00,,---,0.00,VWS V14.01,2013-12-16 06:01:00,
2013-12-15 22:06:00,37.7,33.9,30.27,WSW,239,0.0,0.0,86,0.00,,---,0.00,VWS V14.01,2013-12-16 06:06:00,
2013-12-15 22:10:00,37.6,33.8,30.27,WSW,239,0.0,0.0,86,0.00,,---,0.00,VWS V14.01,2013-12-16 06:10:00,
2013-12-15 22:11:00,37.6,34.1,30.27,WSW,239,0.0,0.0,87,0.00,,---,0.00,VWS V14.01,2013-12-16 06:11:00,
2013-12-15 22:16:00,37.5,34.0,30.27,WSW,239,0.0,0.0,87,0.00,,---,0.00,VWS V14.01,2013-12-16 06:16:00,
2013-12-15 22:20:00,37.5,34.0,30.27,WSW,237,0.0,0.0,87,0.00,,---,0.00,VWS V14.01,2013-12-16 06:20:00,
2013-12-15 22:21:00,37.4,33.9,30.27,WSW,239,0.0,0.0,87,0.00,,---,0.00,VWS V14.01,2013-12-16 06:21:00,
2013-12-15 22:26:00,37.3,33.8,30.27,WSW,239,0.0,0.0,87,0.00,,---,0.00,VWS V14.01,2013-12-16 06:26:00,
2013-12-15 22:30:00,37.2,33.7,30.27,WSW,237,0.0,0.0,87,0.00,,---,0.00,VWS V14.01,2013-12-16 06:30:00,
2013-12-15 22:31:00,37.1,33.6,30.27,WSW,239,0.0,0.0,87,0.00,,---,0.00,VWS V14.01,2013-12-16 06:31:00,
2013-12-15 22:36:00,37.1,33.9,30.27,WSW,239,0.0,0.0,88,0.00,,---,0.00,VWS V14.01,2013-12-16 06:36:00,
2013-12-15 22:40:00,37.1,33.9,30.27,WSW,239,0.0,0.0,88,0.00,,---,0.00,VWS V14.01,2013-12-16 06:40:00,
2013-12-15 22:41:00,37.1,33.9,30.27,WSW,239,0.0,0.0,88,0.00,,---,0.00,VWS V14.01,2013-12-16 06:41:00,
2013-12-15 22:46:00,36.9,33.7,30.27,WSW,238,0.0,0.0,88,0.00,,---,0.00,VWS V14.01,2013-12-16 06:46:00,
2013-12-15 22:50:00,36.8,33.6,30.28,WSW,239,0.0,0.0,88,0.00,,---,0.00,VWS V14.01,2013-12-16 06:50:00,
2013-12-15 22:51:00,36.8,33.6,30.28,WSW,238,0.0,0.0,88,0.00,,---,0.00,VWS V14.01,2013-12-16 06:51:00,
2013-12-15 22:56:00,36.6,33.4,30.28,WSW,240,0.0,0.0,88,0.00,,---,0.00,VWS V14.01,2013-12-16 06:56:00,
2013-12-15 23:00:00,36.6,33.4,30.28,WSW,240,0.0,0.0,88,0.00,,---,0.00,VWS V14.01,2013-12-16 07:00:00,
2013-12-15 23:01:00,36.5,33.3,30.28,WSW,238,0.0,0.0,88,0.00,,---,0.00,VWS V14.01,2013-12-16 07:01:00,
2013-12-15 23:06:00,36.4,33.2,30.28,WSW,239,0.0,0.0,88,0.00,,---,0.00,VWS V14.01,2013-12-16 07:06:00,
2013-12-15 23:10:00,36.4,33.2,30.27,WSW,239,0.0,0.0,88,0.00,,---,0.00,VWS V14.01,2013-12-16 07:10:00,
2013-12-15 23:11:00,36.3,33.1,30.28,WSW,239,0.0,0.0,88,0.00,,---,0.00,VWS V14.01,2013-12-16 07:11:00,
2013-12-15 23:16:00,36.2,33.0,30.27,WSW,238,0.0,0.0,88,0.00,,---,0.00,VWS V14.01,2013-12-16 07:16:00,
2013-12-15 23:20:00,36.2,33.0,30.27,WSW,239,0.0,0.0,88,0.00,,---,0.00,VWS V14.01,2013-12-16 07:20:00,
2013-12-15 23:21:00,36.2,33.3,30.27,WSW,239,0.0,0.0,89,0.00,,---,0.00,VWS V14.01,2013-12-16 07:21:00,
2013-12-15 23:26:00,36.3,33.4,30.27,WSW,239,0.0,0.0,89,0.00,,---,0.00,VWS V14.01,2013-12-16 07:26:00,
2013-12-15 23:30:00,36.3,33.4,30.27,WSW,239,0.0,0.0,89,0.00,,---,0.00,VWS V14.01,2013-12-16 07:30:00,
2013-12-15 23:31:00,36.3,33.4,30.27,WSW,239,0.0,0.0,89,0.00,,---,0.00,VWS V14.01,2013-12-16 07:31:00,
2013-12-15 23:36:00,36.3,33.4,30.27,WSW,239,0.0,0.0,89,0.00,,---,0.00,VWS V14.01,2013-12-16 07:36:00,
2013-12-15 23:40:00,36.2,33.3,30.27,WSW,237,0.0,0.0,89,0.00,,---,0.00,VWS V14.01,2013-12-16 07:40:00,
2013-12-15 23:41:00,36.2,33.3,30.27,WSW,239,0.0,0.0,89,0.00,,---,0.00,VWS V14.01,2013-12-16 07:41:00,
2013-12-15 23:46:00,35.9,33.0,30.27,WSW,239,0.0,0.0,89,0.00,,---,0.00,VWS V14.01,2013-12-16 07:46:00,
2013-12-15 23:50:00,35.8,32.9,30.27,WSW,239,0.0,0.0,89,0.00,,---,0.00,VWS V14.01,2013-12-16 07:50:00,
2013-12-15 23:51:00,35.7,32.8,30.27,WSW,239,0.0,0.0,89,0.00,,---,0.00,VWS V14.01,2013-12-16 07:51:00,
2013-12-15 23:56:00,35.6,32.7,30.26,WSW,240,0.0,0.0,89,0.00,,---,0.00,VWS V14.01,2013-12-16 07:56:00,